Location: ?nandapuram
(16.5396°N, 81.1430°E)
Time: 15:31:46
(UTC+00:00)

Cosmos 1939 Rocket - Pass Details

Date: 14 April 2026
Orbit: 486 x 522 km, 97.5° (Epoch: 11 May)

Event Time Altitude Azimuth Distance (km) Brightness Sun altitude
Rises 23:07:34 0° 6° (N) 2,552 6.5 -17.8°
Reaches altitude 10° 23:09:38 10° 3° (N) 1,674 5.5 -17.4°
Maximum altitude 23:13:11 63° 282° (WNW) 553 2.5 -16.5°
Enters shadow 23:15:32 20° 205° (SSW) 1,179 4.1 -16.0°
